Overview Statistics Trail Chart Weather Telemetry Raw packets
 

This is the latest recevied weather packets stored in our database for station/object KW6V-15. If no packets are shown the sender has not sent any weather packets the latest 10 day(s).

<< 9 10 11 12 13 14 15 >>
Time Temp. Humidity Pressure Rain* Wind** Luminosity Snow
1788141644 14.44° C 82% 1012.8 hPa 0 mm - - -
1788139858 15° C 81% 1013 hPa 0 mm - - -
1788138052 16.11° C 78% 1013.1 hPa 0 mm - - -
1788136252 17.78° C 73% 1012.8 hPa 0 mm - - -
1788134462 19.44° C 70% 1012.7 hPa 0 mm - - -
1788132671 20° C 69% 1012.8 hPa 0 mm - - -
1788130849 20.56° C 69% 1013.1 hPa 0 mm - - -
1788129045 20° C 69% 1013.4 hPa 0 mm - - -
1788127260 20° C 68% 1013.7 hPa 0 mm - - -
1788125458 18.89° C 72% 1014.1 hPa 0 mm - - -
1788123639 20° C 70% 1014.3 hPa 0 mm - - -
1788121838 20.56° C 69% 1014.5 hPa 0 mm - - -
1788120052 20° C 70% 1014.6 hPa 0 mm - - -
1788118259 20° C 69% 1014.6 hPa 0 mm - - -
1788116471 20° C 69% 1014.5 hPa 0 mm - - -
1788114630 19.44° C 71% 1014.2 hPa 0 mm - - -
1788112837 18.33° C 73% 1014.1 hPa 0 mm - - -
1788111052 18.33° C 75% 1013.9 hPa 0 mm - - -
1788109352 17.78° C 76% 1014 hPa 0 mm - - -
1788107437 17.22° C 76% 1014 hPa 0 mm - - -
1788105666 15° C 82% 1014.2 hPa 0 mm - - -
1788103902 12.78° C 90% 1014.3 hPa 0 mm - - -
1788102041 10.56° C 92% 1014.5 hPa 0 mm - - -
1788100260 8.89° C 91% 1014.4 hPa 0 mm - - -
1788098461 10° C 91% 1014.1 hPa 0 mm - - -

* Rain latest hour (hover to see other rain measurements)
** Current wind speed in m/s (hover to see current wind gust speed)